Walterboro, SC

5:19 AM EDT on June 28, 2017 (GMT -0400)
Lowcountry Regional

Weather History for KRBW - April, 2014

Change the Weather History Date:

Thursday, April 24, 2014

  Actual Average Record
Temperature  
Mean Temperature 66 °F -  
Max Temperature 78 °F 80 °F 86 °F (2011)
Min Temperature 55 °F 54 °F 41 °F (2012)
Cooling Degree Days 2    
Growing Degree Days 16 (Base 50)    
Moisture  
Dew Point 55 °F    
Average Humidity 69    
Maximum Humidity 100    
Minimum Humidity 46    
Precipitation  
Precipitation 0.00 in - - ()
Sea Level Pressure  
Sea Level Pressure 30.01 in    
Wind  
Wind Speed 5 mph (East)    
Max Wind Speed 14 mph    
Max Gust Speed 16 mph    
Visibility 10 miles    
Events      
Averages and records for this station are not official NWS values.
T = Trace of Precipitation, MM = Missing Value Source: NWS Daily Summary

Daily Weather History Graph

Daily Weather History Graph

Search for Another Location

Airport or City:

Trip Planner

Search our weather history database for the weather conditions in past years. The results will help you decide how hot, cold, wet, or windy it might be!

Date:

Astronomy

Apr. 24, 2014 Rise Set
Actual Time 6:42 AM EDT 7:59 PM EDT
Civil Twilight 6:16 AM EDT 8:25 PM EDT
Nautical Twilight 5:45 AM EDT 8:56 PM EDT
Astronomical Twilight 5:13 AM EDT 9:28 PM EDT
Moon 3:36 AM EDT (4/24) 3:28 PM EDT (4/24)
Length of Visible Light 14h 08m
Length of Day
13h 16m
Waning Crescent, 24% of the Moon is Illuminated
Apr 24
Waning Crescent
Apr 29
New
May 6
First Quarter
May 14
Full
May 21
Last Quarter

Hourly Weather History & Observations

Time (EDT) Temp. Dew Point Humidity Pressure Visibility Wind Dir Wind Speed Gust Speed Precip Events Conditions
12:15 AM 55.4 °F - N/A% 29.94 in 10.0 mi Calm Calm - N/A   Clear
12:35 AM 55.4 °F - N/A% 29.94 in 10.0 mi NE 3.5 mph - N/A   Clear
1:15 AM 55.4 °F - N/A% 29.95 in 10.0 mi Calm Calm - N/A   Clear
1:35 AM 55.4 °F 55.4 °F 100% 29.95 in 10.0 mi Calm Calm - N/A   Clear
1:55 AM 55.4 °F 55.4 °F 100% 29.95 in 10.0 mi Calm Calm - N/A   Clear
2:15 AM 55.4 °F 55.4 °F 100% 29.95 in 10.0 mi Calm Calm - N/A   Clear
2:55 AM 57.2 °F 48.2 °F 72% 29.94 in 10.0 mi ENE 3.5 mph - N/A   Clear
3:15 AM 57.2 °F 48.2 °F 72% 29.94 in 10.0 mi ENE 3.5 mph - N/A   Clear
3:35 AM 55.4 °F 48.2 °F 77% 29.95 in 10.0 mi ENE 3.5 mph - N/A   Clear
4:15 AM 55.4 °F 46.4 °F 72% 29.96 in 10.0 mi ENE 3.5 mph - N/A   Clear
4:55 AM 55.4 °F 48.2 °F 77% 29.97 in 10.0 mi NE 4.6 mph - N/A   Clear
5:15 AM 55.4 °F 50.0 °F 82% 29.98 in 10.0 mi NE 4.6 mph - N/A   Clear
5:35 AM 55.4 °F 50.0 °F 82% 29.98 in 10.0 mi NE 6.9 mph - N/A   Clear
5:55 AM 55.4 °F 50.0 °F 82% 29.99 in 10.0 mi NE 6.9 mph - N/A   Clear
6:15 AM 55.4 °F 50.0 °F 82% 30.00 in 10.0 mi NE 5.8 mph - N/A   Clear
6:35 AM 55.4 °F 48.2 °F 77% 30.01 in 10.0 mi NE 5.8 mph - N/A   Clear
6:55 AM 55.4 °F 48.2 °F 77% 30.02 in 10.0 mi NNE 4.6 mph - N/A   Clear
7:15 AM 55.4 °F 48.2 °F 77% 30.03 in 10.0 mi Calm Calm - N/A   Clear
7:35 AM 55.4 °F 50.0 °F 82% 30.04 in 10.0 mi NE 4.6 mph - N/A   Clear
7:55 AM 57.2 °F 50.0 °F 77% 30.06 in 10.0 mi NE 3.5 mph - N/A   Clear
8:15 AM 59.0 °F 50.0 °F 72% 30.06 in 10.0 mi NE 8.1 mph - N/A   Clear
8:35 AM 60.8 °F 50.0 °F 68% 30.06 in 10.0 mi ENE 9.2 mph - N/A   Clear
8:55 AM 60.8 °F 50.0 °F 68% 30.07 in 10.0 mi ENE 8.1 mph - N/A   Clear
9:15 AM 62.6 °F 50.0 °F 63% 30.07 in 10.0 mi ENE 8.1 mph - N/A   Clear
9:35 AM 64.4 °F 48.2 °F 56% 30.07 in 10.0 mi ENE 6.9 mph - N/A   Clear
9:55 AM 66.2 °F 50.0 °F 56% 30.07 in 10.0 mi ENE 8.1 mph - N/A   Clear
10:15 AM 68.0 °F 50.0 °F 52% 30.07 in 10.0 mi ENE 6.9 mph - N/A   Clear
10:35 AM 69.8 °F 48.2 °F 46% 30.07 in 10.0 mi ENE 9.2 mph - N/A   Clear
10:55 AM 71.6 °F 50.0 °F 46% 30.07 in 10.0 mi East 9.2 mph - N/A   Clear
11:15 AM 71.6 °F 51.8 °F 50% 30.07 in 10.0 mi East 9.2 mph - N/A   Clear
11:35 AM 73.4 °F 51.8 °F 47% 30.07 in 10.0 mi East 10.4 mph - N/A   Clear
11:55 AM 73.4 °F 53.6 °F 50% 30.07 in 10.0 mi East 9.2 mph - N/A   Clear
12:15 PM 73.4 °F 55.4 °F 53% 30.06 in 10.0 mi East 9.2 mph - N/A   Clear
12:35 PM 77.0 °F 55.4 °F 47% 30.06 in 10.0 mi ESE 8.1 mph - N/A   Clear
12:55 PM 77.0 °F 55.4 °F 47% 30.05 in 10.0 mi East 9.2 mph - N/A   Clear
1:15 PM 77.0 °F 57.2 °F 50% 30.04 in 10.0 mi East 5.8 mph - N/A   Clear
1:35 PM 77.0 °F 57.2 °F 50% 30.03 in 10.0 mi ESE 5.8 mph - N/A   Clear
1:55 PM 77.0 °F 57.2 °F 50% 30.03 in 10.0 mi SE 9.2 mph - N/A   Clear
2:15 PM 78.8 °F 57.2 °F 47% 30.02 in 10.0 mi East 11.5 mph - N/A   Clear
2:35 PM 78.8 °F 57.2 °F 47% 30.01 in 10.0 mi East 6.9 mph - N/A   Clear
2:55 PM 78.8 °F 57.2 °F 47% 30.01 in 10.0 mi East 9.2 mph - N/A   Clear
3:15 PM 78.8 °F 57.2 °F 47% 30.00 in 10.0 mi ESE 8.1 mph - N/A   Clear
3:35 PM 77.0 °F 57.2 °F 50% 29.99 in 10.0 mi ESE 10.4 mph 16.1 mph N/A   Clear
3:55 PM 78.8 °F 57.2 °F 47% 29.99 in 10.0 mi SSE 5.8 mph 16.1 mph N/A   Clear
4:15 PM 78.8 °F 57.2 °F 47% 29.98 in 10.0 mi SE 11.5 mph - N/A   Clear
4:35 PM 78.8 °F 57.2 °F 47% 29.98 in 10.0 mi SSE 12.7 mph - N/A   Clear
4:55 PM 78.8 °F 57.2 °F 47% 29.98 in 10.0 mi South 13.8 mph - N/A   Clear
5:15 PM 77.0 °F 59.0 °F 54% 29.99 in 10.0 mi SE 10.4 mph - N/A   Clear
5:35 PM 77.0 °F 59.0 °F 54% 29.99 in 10.0 mi SE 10.4 mph 16.1 mph N/A   Clear
5:55 PM 75.2 °F 60.8 °F 61% 29.99 in 10.0 mi SE 9.2 mph - N/A   Clear
6:15 PM 73.4 °F 60.8 °F 65% 29.99 in 10.0 mi SE 10.4 mph - N/A   Clear
6:35 PM 73.4 °F 60.8 °F 65% 29.99 in 10.0 mi ESE 10.4 mph - N/A   Clear
6:55 PM 71.6 °F 60.8 °F 69% 29.99 in 10.0 mi ESE 10.4 mph - N/A   Clear
7:15 PM 69.8 °F 59.0 °F 68% 29.99 in 10.0 mi SE 9.2 mph - N/A   Clear
7:35 PM 68.0 °F 60.8 °F 78% 29.99 in 10.0 mi ESE 6.9 mph - N/A   Clear
7:55 PM 66.2 °F 60.8 °F 83% 30.00 in 10.0 mi ESE 5.8 mph - N/A   Clear
8:15 PM 64.4 °F 60.8 °F 88% 29.99 in 10.0 mi ESE 5.8 mph - N/A   Clear
8:35 PM 64.4 °F 60.8 °F 88% 30.00 in 10.0 mi ESE 4.6 mph - N/A   Clear
8:55 PM 62.6 °F 62.6 °F 100% 30.00 in 10.0 mi ESE 4.6 mph - N/A   Clear
9:15 PM 62.6 °F 62.6 °F 100% 30.00 in 10.0 mi ESE 5.8 mph - N/A   Clear
9:35 PM 62.6 °F 62.6 °F 100% 30.00 in 10.0 mi East 5.8 mph - N/A   Clear
9:55 PM 60.8 °F 60.8 °F 100% 30.00 in 10.0 mi East 4.6 mph - N/A   Clear
10:15 PM 60.8 °F 60.8 °F 100% 30.00 in 10.0 mi East 5.8 mph - N/A   Clear
10:35 PM 60.8 °F 60.8 °F 100% 29.99 in 10.0 mi East 5.8 mph - N/A   Clear
10:55 PM 60.8 °F 60.8 °F 100% 30.00 in 10.0 mi East 4.6 mph - N/A   Clear
11:15 PM 59.0 °F - N/A% 30.00 in 10.0 mi Calm Calm - N/A   Clear
11:35 PM 59.0 °F - N/A% 30.00 in 10.0 mi East 4.6 mph - N/A   Clear
11:55 PM 59.0 °F - N/A% 29.99 in 10.0 mi Calm Calm - N/A   Clear